cover

Claude VonStroke, Barry Drift - R2 Knows (Original Mix)

Get it on iTunes StoreListen on Apple Music

Trackname / Key / BPM / Publish dateArtists, Remixers / Label
124 bpm, 8A / A minor, 2018-02-20 (2016-02-19), Electro House,  2  15

Tracks in release Star Wars Headspace

#Trackname / Key / BPM / Publish dateArtists, Remixers / Label
1 102 bpm, 8B / C major, 2018-02-20 (2016-02-19), Electronica,  1  15
2 126 bpm, 1B / B major, 2018-02-20 (2016-02-19), Electronica,  0  15
3 99 bpm, 11B / A major, 2018-02-20 (2016-02-19), Electronica,  0  15
4 115 bpm, 3A / Bb minor, 2018-02-20 (2016-02-19), Electronica,  0  15
5 118 bpm, 3A / Bb minor, 2018-02-20 (2016-02-19), Trap / Future Bass,  0  15
6 145 bpm, 5A / C minor, 2018-02-20 (2016-02-19), Trap / Future Bass,  0  15
7 105 bpm, 7A / D minor, 2018-02-20 (2016-02-19), Electronica,  0  15
8 91 bpm, 9B / G major, 2018-02-20 (2016-02-19), Trap / Future Bass,  1  15
9 142 bpm, / , 2018-02-20 (2016-02-19), Trap / Future Bass,  0  15
10 130 bpm, 11A / F# minor, 2018-02-20 (2016-02-19), Trap / Future Bass,  1  15
11 105 bpm, 2A / Eb minor, 2018-02-20 (2016-02-19), Trap / Future Bass,  1  15
12 140 bpm, 5A / C minor, 2018-02-20 (2016-02-19), Electronica,  0  15
13 124 bpm, 8A / A minor, 2018-02-20 (2016-02-19), Electro House,  2  15
14 160 bpm, 6A / G minor, 2018-02-20 (2016-02-19), Electronica,  0  15
15 118 bpm, 6A / G minor, 2018-02-20 (2016-02-19), Electronica,  1  15

Recommendations

#Trackname / Key / BPM / Publish dateArtists, Remixers / Label
1 126 bpm, 11B / A major, 2016-02-12, Techno,  109  1   1
2
2 124 bpm, 2A / Eb minor, 2015-12-07, Tech House,  92  1   2
1
3 123 bpm, 6A / G minor, 2016-01-22, Tech House,  71  1   2
4 122 bpm, 6A / G minor, 2016-01-22, Tech House,  68  1   2
5 123 bpm, 7A / D minor, 2016-01-29, Tech House,  54  1   3
6 122 bpm, 8B / C major, 2016-02-08, Tech House,  17  1   4
7 124 bpm, 3A / Bb minor, 2016-02-22, Tech House,  7  1   2
8 122 bpm, 3A / Bb minor, 2016-02-19, Indie Dance / Nu Disco,  6  1   1
9 122 bpm, 8A / A minor, 2016-02-08, Tech House,  5  1   5
10 126 bpm, 7B / F major, 2016-01-18, Indie Dance / Nu Disco,  2  1   2
11 122 bpm, 3A / Bb minor, 2016-01-26, Indie Dance / Nu Disco,  2  1   20
12 122 bpm, 7A / D minor, 2016-01-25, Indie Dance / Nu Disco,  2  1   2
13 120 bpm, 7B / F major, 2016-02-15, Indie Dance / Nu Disco,  2  1   3
14 126 bpm, 8A / A minor, 2015-12-25, Techno,  1  1   2

Charts

ArtistTitleGenresPublish date
Wax WorxFeb Fresh ChartTechno, Tech House, Electro House 2016-02-29
NytronNYTRON - ''GROOVE CHART'' FEBRUARY 2016Electronica, House, Electro House, Indie Dance / Nu Disco, Dance 2016-02-21
×

Sign in

Sign in to access your personalized pages, follow artists and labels you love, and create playlists fromyour favorite tracks.

Please wait...